SHIJIAN-20 (SJ-20)

Last updated on Mon Sep 07 2026 00:03:01 GMT+0000 (Coordinated Universal Time)

1 44910U 19097A 26249.17203916 .00000134 00000+0 00000+0 0 9992 2 44910 5.1212 74.0216 0002597 166.8413 206.6792 1.00268835 24510
UTC large
Height (km)
Speed (km/s)
/
Latitude / Longitude
Inclination (degrees)
Orbital Period (minutes)
Azimuth
Elevation
Range (km)
Doppler Factor

Next 0 passes for location: London (51.5072 / 0.1276)

No passes found over London.
SHIJIAN-20 (SJ-20)